This is the latest recevied weather packets stored in our database for station/object OM4MO-10. If no packets are shown the sender has not sent any weather packets the latest 10 day(s).
| Time | Temp. | Humidity | Pressure | Rain* | Wind** | Luminosity | Snow |
|---|---|---|---|---|---|---|---|
| 1777877483 | 15.56° C | 52% | 1024.4 hPa | - | - | - | - |
| 1777876283 | 14.44° C | 70% | 1021.2 hPa | - | - | - | - |
| 1777875083 | 13.33° C | 88% | 1019.9 hPa | - | - | - | - |
| 1777873887 | 12.22° C | 95% | 1020 hPa | - | - | - | - |
| 1777872683 | 11.67° C | 99% | 1020 hPa | - | - | - | - |
| 1777871482 | 10.56° C | 100% | 1019.9 hPa | - | - | - | - |
| 1777870282 | 8.89° C | 100% | 1020 hPa | - | - | - | - |
| 1777869082 | 8.33° C | 100% | 1020 hPa | - | - | - | - |
| 1777867882 | 6.67° C | 100% | 1019.9 hPa | - | - | - | - |
| 1777866682 | 7.22° C | 100% | 1019.6 hPa | - | - | - | - |
| 1777865482 | 5.56° C | 100% | 1019.8 hPa | - | - | - | - |
| 1777864282 | 3.89° C | 100% | 1019.9 hPa | - | - | - | - |
| 1777863082 | 3.89° C | 100% | 1019.6 hPa | - | - | - | - |
| 1777861882 | 3.89° C | 100% | 1019.6 hPa | - | - | - | - |
| 1777860677 | 3.89° C | 100% | 1019.8 hPa | - | - | - | - |
| 1777859477 | 4.44° C | 100% | 1019.6 hPa | - | - | - | - |
| 1777858277 | 4.44° C | 100% | 1019.5 hPa | - | - | - | - |
| 1777857077 | 4.44° C | 100% | 1019.5 hPa | - | - | - | - |
| 1777855877 | 5° C | 100% | 1019.5 hPa | - | - | - | - |
| 1777854677 | 4.44° C | 100% | 1019.5 hPa | - | - | - | - |
| 1777853477 | 4.44° C | 100% | 1019.5 hPa | - | - | - | - |
| 1777852277 | 5° C | 100% | 1019.5 hPa | - | - | - | - |
| 1777851076 | 6.11° C | 100% | 1019.7 hPa | - | - | - | - |
| 1777849876 | 5.56° C | 100% | 1019.7 hPa | - | - | - | - |
| 1777848676 | 6.11° C | 100% | 1019.7 hPa | - | - | - | - |
* Rain since midnight (hover to see other rain measurements)
** Current wind speed in m/s (hover to see current wind gust speed)